User: anonymous   Login
Location: *
(37.9500°N, 27.3666°E)
Time: 05:14:47
(UTC+00:00)
Language:

Cosmos 2263 Rocket - Orbit

View from above orbital plane
View from above orbital plane
View from above satellite
View from above satellite

Ground track
Ground track

The orbit data is extracted from the following two-line orbital elements,

1 22803U 93059B   22021.49538513 -.00000061  00000-0 -65580-5 0  9994
2 22803  70.9913 310.5304 0017854 340.4537  19.5900 14.16848220465884
Epoch (UTC): 21 January 2022 11:53:21
Eccentricity: 0.0017854
inclination: 70.9913°
perigee height: 823 km
apogee height: 849 km
right ascension of ascending node: 310.5304°
argument of perigee: 340.4537°
revolutions per day: 14.16848220
mean anomaly at epoch: 19.5900°
orbit number at epoch: 46588

The dashed part of the orbit path shows where the satellite is in the earth's shadow,  

DLR